This is the latest recevied weather packets stored in our database for station/object KP4CRN. If no packets are shown the sender has not sent any weather packets the latest 10 day(s).
| Time | Temp. | Humidity | Pressure | Rain* | Wind** | Luminosity | Snow |
|---|---|---|---|---|---|---|---|
| 1777936724 | 28.33° C | 79% | 1016.1 hPa | 0 mm | - | 0 W/m² | - |
| 1777936421 | 28.89° C | 79% | 1016.2 hPa | 0 mm | - | 0 W/m² | - |
| 1777936117 | 28.89° C | 79% | 1016 hPa | 0 mm | - | 0 W/m² | - |
| 1777935815 | 28.89° C | 79% | 1015.8 hPa | 0 mm | - | 0 W/m² | - |
| 1777935514 | 28.89° C | 78% | 1015.9 hPa | 0 mm | - | 0 W/m² | - |
| 1777935210 | 28.89° C | 78% | 1015.6 hPa | 0 mm | - | 1 W/m² | - |
| 1777934908 | 28.89° C | 78% | 1015.6 hPa | 0 mm | - | 2 W/m² | - |
| 1777934604 | 28.89° C | 78% | 1015.6 hPa | 0 mm | - | 5 W/m² | - |
| 1777934301 | 28.89° C | 77% | 1015.6 hPa | 0 mm | - | 8 W/m² | - |
| 1777933996 | 29.44° C | 77% | 1015.5 hPa | 0 mm | - | 13 W/m² | - |
| 1777933693 | 29.44° C | 76% | 1015.3 hPa | 0 mm | - | 18 W/m² | - |
| 1777933390 | 29.44° C | 75% | 1015.3 hPa | 0 mm | - | 23 W/m² | - |
| 1777933089 | 30° C | 74% | 1015.2 hPa | 0 mm | - | 23 W/m² | - |
| 1777932785 | 30° C | 74% | 1015.3 hPa | 0 mm | - | 25 W/m² | - |
| 1777932482 | 30.56° C | 73% | 1015.2 hPa | 0 mm | - | 35 W/m² | - |
| 1777932178 | 30° C | 72% | 1015 hPa | 0 mm | - | 51 W/m² | - |
| 1777931876 | 30° C | 72% | 1014.8 hPa | 0 mm | - | 61 W/m² | - |
| 1777931572 | 30.56° C | 71% | 1014.8 hPa | 0 mm | - | 71 W/m² | - |
| 1777931268 | 30.56° C | 71% | 1014.7 hPa | 0 mm | - | 83 W/m² | - |
| 1777930965 | 31.11° C | 70% | 1014.9 hPa | 0 mm | - | 95 W/m² | - |
| 1777930661 | 31.11° C | 71% | 1014.7 hPa | 0 mm | - | 107 W/m² | - |
| 1777930352 | 30.56° C | 71% | 1014.5 hPa | 0 mm | - | 123 W/m² | - |
| 1777930049 | 30.56° C | 71% | 1014.5 hPa | 0 mm | - | 132 W/m² | - |
| 1777929745 | 31.11° C | 70% | 1014.5 hPa | 0 mm | - | 145 W/m² | - |
| 1777929443 | 30.56° C | 71% | 1014.3 hPa | 0 mm | - | 158 W/m² | - |
* Rain latest hour (hover to see other rain measurements)
** Current wind speed in m/s (hover to see current wind gust speed)